When you browse on this site, cookies collect data to enhance your experience and personalize the content and advertising you see.
Visit our Privacy Policy to learn more. By continuing to use the site, you agree to this use of cookies and data.
  • In Hungary
  • List of Countries
  • For 7 days
  • Water Temperature
  • Weather Map
  • News
  • Weather Widgets
  • user-avatar
    Login

    Hourly Weather Zion

    Today, 25 May, Monday

    Time Temperature Precipitation Wind Pressure Humidity
    00:00 +21°C° 0 mm 2 mps 742 mmHg 87%
    01:00 +20°C° 0 mm 2 mps 741 mmHg 87%
    02:00 +20°C° 0 mm 3 mps 741 mmHg 86%
    03:00 +20°C° 0 mm 3 mps 741 mmHg 86%
    04:00 +20°C° 0 mm 3 mps 741 mmHg 86%
    05:00 +20°C° 0 mm 4 mps 742 mmHg 87%
    06:00 +20°C° 0 mm 4 mps 742 mmHg 87%
    07:00 +22°C° 0 mm 4 mps 742 mmHg 83%
    08:00 +23°C° 0 mm 4 mps 742 mmHg 79%
    09:00 +25°C° 0 mm 4 mps 743 mmHg 75%
    10:00 +26°C° 0.1 mm 4 mps 743 mmHg 71%
    11:00 +27°C° 0.1 mm 5 mps 743 mmHg 67%
    12:00 +28°C° 0.1 mm 5 mps 742 mmHg 63%
    13:00 +28°C° 0.1 mm 5 mps 742 mmHg 62%
    14:00 +28°C° 0.1 mm 4 mps 742 mmHg 60%
    15:00 +29°C° 0.1 mm 4 mps 742 mmHg 58%
    16:00 +28°C° 0.2 mm 4 mps 742 mmHg 62%
    17:00 +28°C° 0.2 mm 3 mps 742 mmHg 65%
    18:00 +27°C° 0.2 mm 3 mps 742 mmHg 68%
    19:00 +26°C° 0.5 mm 3 mps 742 mmHg 71%
    20:00 +25°C° 0.5 mm 3 mps 743 mmHg 74%
    21:00 +24°C° 0.5 mm 3 mps 743 mmHg 76%
    22:00 +24°C° 1 mm 3 mps 743 mmHg 79%
    23:00 +23°C° 1 mm 2 mps 743 mmHg 82%

    Tomorrow, 26 May, Tuesday

    Time Temperature Precipitation Wind Pressure Humidity
    00:00 +21°C° 1 mm 2 mps 743 mmHg 85%
    01:00 +21°C° 1 mm 2 mps 743 mmHg 86%
    02:00 +21°C° 1 mm 2 mps 743 mmHg 87%
    03:00 +21°C° 1 mm 2 mps 743 mmHg 88%
    04:00 +21°C° 0.2 mm 2 mps 743 mmHg 88%
    05:00 +21°C° 0.2 mm 3 mps 744 mmHg 87%
    06:00 +22°C° 0.2 mm 3 mps 744 mmHg 87%
    07:00 +24°C° 0 mm 3 mps 744 mmHg 82%
    08:00 +25°C° 0 mm 3 mps 744 mmHg 76%
    09:00 +26°C° 0 mm 4 mps 744 mmHg 71%
    10:00 +27°C° 0.3 mm 4 mps 744 mmHg 69%
    11:00 +27°C° 0.3 mm 4 mps 744 mmHg 66%
    12:00 +28°C° 0.3 mm 5 mps 744 mmHg 64%
    13:00 +28°C° 0.2 mm 5 mps 744 mmHg 63%
    14:00 +28°C° 0.2 mm 5 mps 744 mmHg 61%
    15:00 +29°C° 0.2 mm 5 mps 743 mmHg 60%
    16:00 +28°C° 0.2 mm 5 mps 743 mmHg 62%
    17:00 +28°C° 0.2 mm 4 mps 743 mmHg 65%
    18:00 +27°C° 0.2 mm 4 mps 743 mmHg 67%
    19:00 +26°C° 0 mm 4 mps 743 mmHg 68%
    20:00 +26°C° 0 mm 4 mps 743 mmHg 70%
    21:00 +25°C° 0 mm 5 mps 744 mmHg 71%
    22:00 +25°C° 0 mm 5 mps 744 mmHg 73%
    23:00 +23°C° 0 mm 5 mps 744 mmHg 75%

    Day after tomorrow, 27 May, Wednesday

    Time Temperature Precipitation Wind Pressure Humidity
    00:00 +23°C° 0 mm 5 mps 744 mmHg 78%
    01:00 +22°C° 0 mm 4 mps 744 mmHg 81%
    02:00 +22°C° 0 mm 4 mps 744 mmHg 84%
    03:00 +21°C° 0 mm 3 mps 744 mmHg 87%
    04:00 +21°C° 0 mm 3 mps 744 mmHg 87%
    05:00 +21°C° 0 mm 3 mps 744 mmHg 87%
    06:00 +21°C° 0 mm 3 mps 745 mmHg 87%
    07:00 +22°C° 0 mm 3 mps 745 mmHg 83%
    08:00 +23°C° 0 mm 4 mps 745 mmHg 79%
    09:00 +25°C° 0 mm 4 mps 745 mmHg 75%
    10:00 +25°C° 0 mm 4 mps 745 mmHg 73%
    11:00 +25°C° 0 mm 3 mps 745 mmHg 71%
    12:00 +26°C° 0 mm 3 mps 745 mmHg 69%
    13:00 +26°C° 0.3 mm 3 mps 745 mmHg 69%
    14:00 +26°C° 0.3 mm 3 mps 744 mmHg 70%
    15:00 +26°C° 0.3 mm 3 mps 744 mmHg 70%
    16:00 +25°C° 0.5 mm 3 mps 744 mmHg 72%
    17:00 +25°C° 0.5 mm 2 mps 744 mmHg 75%
    18:00 +24°C° 0.5 mm 2 mps 744 mmHg 78%
    19:00 +24°C° 1.1 mm 2 mps 744 mmHg 79%
    20:00 +23°C° 1.1 mm 2 mps 744 mmHg 81%
    21:00 +23°C° 1.1 mm 1 mps 744 mmHg 82%
    22:00 +22°C° 0 mm 1 mps 744 mmHg 83%
    23:00 +22°C° 0 mm 1 mps 744 mmHg 84%

    28 May, Thursday

    Time Temperature Precipitation Wind Pressure Humidity
    00:00 +20°C° 0 mm 2 mps 744 mmHg 84%
    01:00 +21°C° 0.2 mm 1 mps 744 mmHg 86%
    02:00 +21°C° 0.2 mm 1 mps 744 mmHg 87%
    03:00 +21°C° 0.2 mm 1 mps 743 mmHg 88%
    04:00 +21°C° 0.3 mm 1 mps 743 mmHg 89%
    05:00 +21°C° 0.3 mm 1 mps 743 mmHg 89%
    06:00 +19°C° 0.3 mm 0 mps 743 mmHg 89%
    07:00 +22°C° 0.3 mm 1 mps 744 mmHg 87%
    08:00 +22°C° 0.3 mm 1 mps 744 mmHg 85%
    09:00 +23°C° 0.3 mm 1 mps 744 mmHg 82%
    10:00 +24°C° 0.6 mm 1 mps 743 mmHg 80%
    11:00 +24°C° 0.6 mm 2 mps 743 mmHg 78%
    12:00 +25°C° 0.6 mm 2 mps 743 mmHg 76%
    13:00 +22°C° 0.8 mm 3 mps 743 mmHg 81%
    14:00 +21°C° 0.8 mm 4 mps 742 mmHg 86%
    15:00 +20°C° 0.8 mm 5 mps 742 mmHg 90%
    16:00 +19°C° 1.3 mm 5 mps 742 mmHg 92%
    17:00 +18°C° 1.3 mm 4 mps 742 mmHg 93%
    18:00 +18°C° 1.3 mm 4 mps 743 mmHg 94%
    19:00 +18°C° 0.3 mm 3 mps 743 mmHg 94%
    20:00 +17°C° 0.3 mm 2 mps 743 mmHg 94%
    21:00 +17°C° 0.3 mm 2 mps 743 mmHg 93%
    22:00 +17°C° 0 mm 2 mps 743 mmHg 92%
    23:00 +17°C° 0 mm 2 mps 743 mmHg 90%

    29 May, Friday

    Time Temperature Precipitation Wind Pressure Humidity
    00:00 +17°C° 0 mm 3 mps 743 mmHg 88%
    01:00 +17°C° 0 mm 3 mps 743 mmHg 86%
    02:00 +15°C° 0 mm 4 mps 744 mmHg 84%
    03:00 +15°C° 0 mm 4 mps 744 mmHg 82%
    04:00 +15°C° 0 mm 4 mps 744 mmHg 82%
    05:00 +14°C° 0 mm 5 mps 745 mmHg 82%
    06:00 +14°C° 0 mm 5 mps 745 mmHg 82%
    07:00 +15°C° 0 mm 5 mps 745 mmHg 78%
    08:00 +16°C° 0 mm 5 mps 745 mmHg 74%
    09:00 +17°C° 0 mm 5 mps 746 mmHg 70%
    10:00 +17°C° 0 mm 5 mps 746 mmHg 68%
    11:00 +17°C° 0 mm 5 mps 746 mmHg 66%
    12:00 +19°C° 0 mm 5 mps 746 mmHg 64%
    13:00 +17°C° 0 mm 5 mps 746 mmHg 65%
    14:00 +17°C° 0 mm 5 mps 746 mmHg 66%
    15:00 +17°C° 0 mm 5 mps 745 mmHg 67%
    16:00 +16°C° 0 mm 5 mps 746 mmHg 69%
    17:00 +15°C° 0 mm 4 mps 746 mmHg 71%
    18:00 +14°C° 0 mm 4 mps 746 mmHg 73%
    19:00 +13°C° 0 mm 4 mps 746 mmHg 73%
    20:00 +12°C° 0 mm 4 mps 747 mmHg 74%
    21:00 +12°C° 0 mm 3 mps 747 mmHg 74%
    22:00 +11°C° 0 mm 4 mps 748 mmHg 74%
    23:00 +10°C° 0 mm 5 mps 748 mmHg 74%

    30 May, Saturday

    Time Temperature Precipitation Wind Pressure Humidity
    00:00 +9°C° 0 mm 5 mps 748 mmHg 74%
    01:00 +9°C° 0 mm 5 mps 748 mmHg 72%
    02:00 +9°C° 0 mm 5 mps 748 mmHg 71%
    03:00 +8°C° 0 mm 6 mps 749 mmHg 69%
    04:00 +8°C° 0 mm 6 mps 749 mmHg 69%
    05:00 +9°C° 0 mm 6 mps 749 mmHg 70%
    06:00 +9°C° 0 mm 6 mps 750 mmHg 70%
    07:00 +9°C° 0 mm 6 mps 750 mmHg 66%
    08:00 +10°C° 0 mm 7 mps 750 mmHg 62%
    09:00 +11°C° 0 mm 7 mps 750 mmHg 59%
    10:00 +11°C° 0 mm 7 mps 750 mmHg 57%
    11:00 +13°C° 0 mm 6 mps 750 mmHg 56%
    12:00 +13°C° 0 mm 6 mps 750 mmHg 54%
    13:00 +13°C° 0 mm 6 mps 750 mmHg 51%
    14:00 +14°C° 0 mm 6 mps 750 mmHg 49%
    15:00 +14°C° 0 mm 5 mps 749 mmHg 46%
    16:00 +14°C° 0 mm 5 mps 750 mmHg 48%
    17:00 +13°C° 0 mm 4 mps 750 mmHg 51%
    18:00 +13°C° 0 mm 4 mps 750 mmHg 53%
    19:00 +12°C° 0 mm 3 mps 750 mmHg 52%
    20:00 +11°C° 0 mm 3 mps 750 mmHg 51%
    21:00 +10°C° 0 mm 2 mps 750 mmHg 50%
    22:00 +10°C° 0 mm 2 mps 750 mmHg 50%
    23:00 +10°C° 0 mm 2 mps 750 mmHg 50%
    Show more